| time (UTC) | temp F | wind direction | speed MPH | gust MPH | rain 1hr in | rain 24hr in | rain mn in | humidity % | barometer mb |
| 20260503023917 | 45 | 225 | 8.0 | 9.0 | 0.00 | 0.33 | 0.33 | 50 | 997.2 |
| 20260503023417 | 45 | 225 | 6.0 | 7.0 | 0.00 | 0.33 | 0.33 | 49 | 997.3 |
| 20260503022917 | 45 | 203 | 4.0 | 8.0 | 0.00 | 0.33 | 0.33 | 50 | 997.2 |
| 20260503022419 | 45 | 225 | 6.0 | 8.0 | 0.00 | 0.33 | 0.33 | 49 | 997.2 |
| 20260503021919 | 45 | 203 | 3.0 | 5.0 | 0.00 | 0.33 | 0.33 | 49 | 997.2 |
| 20260503021417 | 45 | 203 | 5.0 | 8.0 | 0.00 | 0.33 | 0.33 | 49 | 997.2 |
| 20260503020918 | 45 | 203 | 5.0 | 7.0 | 0.00 | 0.33 | 0.33 | 48 | 997.3 |
| 20260503020418 | 45 | 203 | 4.0 | 7.0 | 0.00 | 0.34 | 0.33 | 48 | 997.1 |
| 20260503015919 | 45 | 203 | 4.0 | 7.0 | 0.00 | 0.34 | 0.33 | 49 | 997.3 |
| 20260503015419 | 45 | 203 | 2.0 | 4.0 | 0.00 | 0.34 | 0.33 | 48 | 997.2 |
| 20260503014918 | 45 | 203 | 3.0 | 5.0 | 0.00 | 0.34 | 0.33 | 48 | 997.2 |
| 20260503014438 | 45 | 180 | 2.0 | 3.0 | 0.00 | 0.34 | 0.33 | 48 | 997.2 |
| 20260503013917 | 45 | 203 | 2.0 | 3.0 | 0.00 | 0.34 | 0.33 | 48 | 997.2 |
| 20260503013417 | 45 | 180 | 2.0 | 3.0 | 0.00 | 0.34 | 0.33 | 47 | 997.2 |
| 20260503012917 | 45 | 180 | 4.0 | 8.0 | 0.00 | 0.34 | 0.33 | 47 | 997.1 |
| 20260503012418 | 46 | 180 | 5.0 | 7.0 | 0.00 | 0.34 | 0.33 | 46 | 997.2 |
| 20260503011919 | 46 | 203 | 2.0 | 5.0 | 0.00 | 0.34 | 0.33 | 46 | 997.1 |
| 20260503011417 | 46 | 180 | 2.0 | 5.0 | 0.00 | 0.34 | 0.33 | 45 | 997.2 |
| 20260503010917 | 46 | 180 | 1.0 | 3.0 | 0.00 | 0.34 | 0.33 | 45 | 997.1 |
| 20260503010418 | 46 | 180 | 2.0 | 5.0 | 0.00 | 0.34 | 0.33 | 44 | 997.1 |
| 20260503005919 | 46 | 180 | 3.0 | 4.0 | 0.00 | 0.34 | 0.33 | 44 | 997.1 |
| 20260503005417 | 46 | 180 | 6.0 | 7.0 | 0.00 | 0.34 | 0.33 | 44 | 997.1 |
| 20260503004938 | 46 | 180 | 4.0 | 5.0 | 0.00 | 0.34 | 0.33 | 44 | 997.1 |
| 20260503004418 | 46 | 180 | 3.0 | 4.0 | 0.00 | 0.34 | 0.33 | 44 | 997.1 |
| 20260503003917 | 46 | 180 | 4.0 | 4.0 | 0.00 | 0.34 | 0.33 | 44 | 997.0 |
| 20260503003418 | 46 | 203 | 2.0 | 3.0 | 0.00 | 0.34 | 0.33 | 43 | 997.0 |
| 20260503002918 | 46 | 203 | 2.0 | 5.0 | 0.00 | 0.34 | 0.33 | 43 | 997.0 |
| 20260503002418 | 46 | 203 | 3.0 | 5.0 | 0.00 | 0.34 | 0.33 | 43 | 997.0 |
| 20260503001918 | 46 | 225 | 1.0 | 2.0 | 0.00 | 0.34 | 0.33 | 42 | 997.0 |
| 20260503001418 | 46 | 225 | 2.0 | 3.0 | 0.00 | 0.34 | 0.33 | 44 | 997.0 |
| 20260503000918 | 46 | 225 | 2.0 | 3.0 | 0.00 | 0.34 | 0.33 | 44 | 997.1 |
| 20260503000417 | 46 | 225 | 2.0 | 4.0 | 0.00 | 0.34 | 0.33 | 43 | 997.0 |
| 20260502235917 | 46 | 203 | 4.0 | 5.0 | 0.00 | 0.34 | 0.33 | 43 | 997.1 |
| 20260502235417 | 46 | 225 | 5.0 | 6.0 | 0.00 | 0.34 | 0.33 | 44 | 997.0 |
| 20260502234958 | 46 | 225 | 4.0 | 5.0 | 0.00 | 0.34 | 0.33 | 43 | 997.0 |
| 20260502234417 | 46 | 225 | 5.0 | 6.0 | 0.00 | 0.34 | 0.33 | 44 | 997.0 |
| 20260502233917 | 46 | 225 | 6.0 | 7.0 | 0.00 | 0.34 | 0.33 | 43 | 996.9 |
| 20260502233418 | 46 | 225 | 4.0 | 5.0 | 0.00 | 0.34 | 0.33 | 43 | 997.0 |
| 20260502232938 | 46 | 225 | 5.0 | 6.0 | 0.00 | 0.34 | 0.33 | 43 | 997.0 |
| 20260502232417 | 47 | 225 | 3.0 | 4.0 | 0.00 | 0.34 | 0.33 | 43 | 997.0 |
| 20260502231918 | 47 | 225 | 4.0 | 5.0 | 0.00 | 0.34 | 0.33 | 43 | 997.0 |
| 20260502231418 | 47 | 225 | 4.0 | 5.0 | 0.00 | 0.34 | 0.33 | 44 | 997.0 |
| 20260502230917 | 47 | 225 | 6.0 | 7.0 | 0.00 | 0.34 | 0.33 | 41 | 997.0 |
| 20260502230437 | 47 | 248 | 2.0 | 3.0 | 0.00 | 0.34 | 0.33 | 39 | 997.1 |
| 20260502225935 | 47 | 225 | 5.0 | 6.0 | 0.00 | 0.34 | 0.33 | 41 | 997.0 |
| 20260502225418 | 47 | 270 | 2.0 | 3.0 | 0.00 | 0.34 | 0.33 | 38 | 997.0 |
| 20260502224937 | 47 | 270 | 3.0 | 4.0 | 0.00 | 0.34 | 0.33 | 41 | 997.3 |
| 20260502224418 | 47 | 270 | 3.0 | 4.0 | 0.00 | 0.34 | 0.33 | 41 | 997.0 |
| 20260502223937 | 47 | 270 | 3.0 | 4.0 | 0.00 | 0.34 | 0.33 | 40 | 997.1 |
| 20260502223417 | 47 | 270 | 4.0 | 7.0 | 0.00 | 0.34 | 0.33 | 40 | 997.0 |
| 20260502222917 | 47 | 293 | 4.0 | 4.0 | 0.00 | 0.34 | 0.33 | 39 | 997.1 |
| 20260502222420 | 47 | 293 | 3.0 | 5.0 | 0.00 | 0.34 | 0.33 | 38 | 997.1 |
| 20260502221917 | 48 | 270 | 3.0 | 4.0 | 0.00 | 0.34 | 0.33 | 40 | 997.2 |
| 20260502221420 | 48 | 270 | 4.0 | 4.0 | 0.00 | 0.34 | 0.33 | 41 | 997.1 |
| 20260502220917 | 48 | 270 | 7.0 | 8.0 | 0.00 | 0.34 | 0.33 | 40 | 997.1 |
| 20260502220417 | 48 | 315 | 4.0 | 4.0 | 0.00 | 0.34 | 0.33 | 38 | 997.1 |
| 20260502215919 | 48 | 270 | 3.0 | 4.0 | 0.00 | 0.34 | 0.33 | 40 | 997.1 |
| 20260502215419 | 47 | 270 | 3.0 | 4.0 | 0.00 | 0.34 | 0.33 | 41 | 997.1 |
| 20260502214919 | 47 | 270 | 5.0 | 7.0 | 0.00 | 0.34 | 0.33 | 40 | 997.1 |
| 20260502214419 | 47 | 270 | 3.0 | 4.0 | 0.00 | 0.34 | 0.33 | 41 | 997.1 |
| 20260502213921 | 47 | 270 | 3.0 | 6.0 | 0.00 | 0.34 | 0.33 | 42 | 997.1 |
| 20260502213420 | 47 | 293 | 4.0 | 9.0 | 0.00 | 0.34 | 0.33 | 41 | 997.1 |
| 20260502212917 | 47 | 338 | 4.0 | 5.0 | 0.00 | 0.34 | 0.33 | 40 | 997.1 |
| 20260502212419 | 48 | 293 | 3.0 | 4.0 | 0.00 | 0.34 | 0.33 | 40 | 997.1 |
| 20260502211919 | 48 | 270 | 2.0 | 6.0 | 0.00 | 0.34 | 0.33 | 40 | 997.1 |
| 20260502211420 | 49 | 270 | 6.0 | 7.0 | 0.00 | 0.34 | 0.33 | 41 | 997.1 |
| 20260502210920 | 49 | 270 | 4.0 | 6.0 | 0.00 | 0.34 | 0.33 | 44 | 997.1 |
| 20260502210417 | 48 | 338 | 6.0 | 9.0 | 0.00 | 0.34 | 0.33 | 43 | 997.1 |
| 20260502205938 | 48 | 293 | 3.0 | 7.0 | 0.00 | 0.34 | 0.33 | 41 | 997.1 |
| 20260502205419 | 49 | 338 | 4.0 | 7.0 | 0.00 | 0.34 | 0.33 | 42 | 997.1 |
| 20260502205000 | 49 | 293 | 3.0 | 7.0 | 0.00 | 0.34 | 0.33 | 43 | 997.2 |
| 20260502204417 | 48 | 293 | 4.0 | 4.0 | 0.00 | 0.34 | 0.33 | 42 | 997.1 |
| 20260502203937 | 48 | 293 | 2.0 | 4.0 | 0.00 | 0.34 | 0.33 | 42 | 997.2 |
| 20260502203419 | 48 | 293 | 4.0 | 5.0 | 0.00 | 0.34 | 0.33 | 43 | 997.2 |
| 20260502202939 | 47 | 270 | 6.0 | 8.0 | 0.00 | 0.34 | 0.33 | 44 | 997.1 |
| 20260502202421 | 47 | 293 | 3.0 | 5.0 | 0.00 | 0.34 | 0.33 | 45 | 997.2 |
| 20260502201940 | 46 | 270 | 5.0 | 7.0 | 0.00 | 0.34 | 0.33 | 44 | 997.2 |
| 20260502201419 | 47 | 270 | 8.0 | 10.0 | 0.00 | 0.34 | 0.33 | 44 | 997.2 |
| 20260502200939 | 47 | 315 | 4.0 | 8.0 | 0.00 | 0.34 | 0.33 | 45 | 997.3 |
| 20260502200420 | 47 | 293 | 3.0 | 4.0 | 0.00 | 0.34 | 0.33 | 43 | 997.4 |
| 20260502195919 | 47 | 270 | 2.0 | 3.0 | 0.00 | 0.34 | 0.33 | 44 | 997.4 |
| 20260502195419 | 47 | 23 | 4.0 | 8.0 | 0.00 | 0.34 | 0.33 | 45 | 997.6 |
| 20260502194917 | 47 | 293 | 4.0 | 7.0 | 0.00 | 0.34 | 0.33 | 43 | 997.6 |
| 20260502194417 | 48 | 338 | 4.0 | 6.0 | 0.00 | 0.34 | 0.33 | 43 | 997.7 |
| 20260502193917 | 48 | 293 | 3.0 | 4.0 | 0.00 | 0.34 | 0.33 | 42 | 997.7 |
| 20260502193440 | 48 | 0 | 5.0 | 10.0 | 0.00 | 0.34 | 0.33 | 42 | 997.6 |
| 20260502192918 | 47 | 270 | 3.0 | 6.0 | 0.00 | 0.34 | 0.33 | 44 | 997.8 |
| 20260502192417 | 47 | 270 | 6.0 | 8.0 | 0.00 | 0.34 | 0.33 | 44 | 997.8 |
| 20260502191937 | 46 | 293 | 7.0 | 9.0 | 0.00 | 0.34 | 0.33 | 44 | 997.8 |
| 20260502191418 | 46 | 315 | 3.0 | 5.0 | 0.00 | 0.34 | 0.33 | 44 | 997.8 |
| 20260502190917 | 46 | 293 | 6.0 | 7.0 | 0.00 | 0.34 | 0.33 | 43 | 997.9 |
| 20260502190417 | 46 | 270 | 8.0 | 11.0 | 0.00 | 0.34 | 0.33 | 45 | 997.9 |
| 20260502185917 | 46 | 315 | 3.0 | 4.0 | 0.00 | 0.34 | 0.33 | 44 | 998.0 |
| 20260502185416 | 46 | 248 | 4.0 | 8.0 | 0.00 | 0.34 | 0.33 | 47 | 998.0 |
| 20260502184917 | 46 | 23 | 1.0 | 4.0 | 0.00 | 0.34 | 0.33 | 48 | 998.1 |
| 20260502184417 | 45 | 0.0 | 1.0 | 0.00 | 0.34 | 0.33 | 48 | 998.0 | |
| 20260502183918 | 46 | 0 | 8.0 | 10.0 | 0.00 | 0.34 | 0.33 | 49 | 998.0 |
| 20260502183417 | 46 | 23 | 3.0 | 5.0 | 0.00 | 0.34 | 0.33 | 47 | 998.0 |
| 20260502182917 | 46 | 0 | 5.0 | 8.0 | 0.00 | 0.34 | 0.33 | 48 | 998.0 |
| 20260502182417 | 46 | 23 | 3.0 | 4.0 | 0.00 | 0.34 | 0.33 | 48 | 998.0 |
| 20260502181917 | 45 | 45 | 4.0 | 6.0 | 0.00 | 0.34 | 0.33 | 50 | 998.1 |
| 20260502181418 | 45 | 23 | 5.0 | 7.0 | 0.00 | 0.34 | 0.33 | 49 | 998.1 |
| 20260502180918 | 45 | 68 | 3.0 | 5.0 | 0.00 | 0.34 | 0.33 | 48 | 998.1 |
| 20260502180420 | 45 | 45 | 6.0 | 7.0 | 0.00 | 0.34 | 0.33 | 49 | 998.2 |
| 20260502170416 | 44 | 0 | 2.0 | 3.0 | 0.00 | 0.34 | 0.33 | 48 | 998.6 |
| 20260502163916 | 43 | 68 | 3.0 | 5.0 | 0.00 | 0.34 | 0.33 | 50 | 998.8 |
| 20260502163416 | 42 | 68 | 3.0 | 5.0 | 0.00 | 0.34 | 0.33 | 49 | 998.7 |
| 20260502162916 | 42 | 45 | 5.0 | 9.0 | 0.00 | 0.34 | 0.33 | 50 | 998.8 |
| 20260502162417 | 42 | 23 | 4.0 | 5.0 | 0.00 | 0.35 | 0.33 | 50 | 998.8 |
| 20260502161917 | 42 | 23 | 4.0 | 6.0 | 0.00 | 0.35 | 0.33 | 51 | 998.8 |
| 20260502161417 | 42 | 45 | 6.0 | 8.0 | 0.00 | 0.35 | 0.33 | 50 | 998.7 |
| 20260502160917 | 42 | 45 | 3.0 | 5.0 | 0.00 | 0.35 | 0.33 | 50 | 998.8 |
| 20260502160416 | 42 | 45 | 5.0 | 7.0 | 0.00 | 0.35 | 0.33 | 50 | 998.8 |
| 20260502151919 | 42 | 68 | 7.0 | 9.0 | 0.00 | 0.37 | 0.33 | 50 | 998.5 |
| 20260502151418 | 42 | 45 | 4.0 | 7.0 | 0.00 | 0.37 | 0.33 | 50 | 998.6 |
| 20260502150920 | 42 | 45 | 5.0 | 8.0 | 0.00 | 0.38 | 0.33 | 51 | 998.5 |
| 20260502150418 | 42 | 23 | 5.0 | 8.0 | 0.00 | 0.38 | 0.33 | 51 | 998.4 |
| 20260502130421 | 42 | 45 | 9.0 | 15.0 | 0.00 | 0.42 | 0.33 | 50 | 997.8 |
| 20260502123418 | 41 | 23 | 11.0 | 14.0 | 0.00 | 0.44 | 0.33 | 49 | 998.0 |
| 20260502122938 | 41 | 23 | 9.0 | 12.0 | 0.00 | 0.44 | 0.33 | 49 | 998.0 |
| 20260502122419 | 41 | 45 | 8.0 | 12.0 | 0.00 | 0.44 | 0.33 | 49 | 998.0 |
| 20260502121918 | 42 | 23 | 9.0 | 13.0 | 0.00 | 0.44 | 0.33 | 49 | 998.0 |
| 20260502121418 | 42 | 23 | 10.0 | 12.0 | 0.00 | 0.44 | 0.33 | 49 | 997.9 |
| 20260502120919 | 41 | 23 | 10.0 | 12.0 | 0.00 | 0.44 | 0.33 | 49 | 997.9 |
| 20260502120418 | 42 | 45 | 8.0 | 12.0 | 0.00 | 0.44 | 0.33 | 49 | 997.8 |
| 20260502115919 | 41 | 23 | 7.0 | 12.0 | 0.00 | 0.44 | 0.33 | 50 | 997.8 |
| 20260502115419 | 41 | 45 | 8.0 | 11.0 | 0.00 | 0.44 | 0.33 | 50 | 997.7 |
| 20260502114938 | 41 | 23 | 10.0 | 13.0 | 0.00 | 0.44 | 0.33 | 50 | 997.7 |
| 20260502114418 | 41 | 23 | 10.0 | 14.0 | 0.00 | 0.44 | 0.33 | 50 | 997.6 |
| 20260502113919 | 41 | 45 | 8.0 | 12.0 | 0.00 | 0.45 | 0.33 | 50 | 997.6 |
| 20260502113418 | 41 | 23 | 10.0 | 14.0 | 0.00 | 0.45 | 0.33 | 50 | 997.6 |
| 20260502112918 | 41 | 23 | 10.0 | 14.0 | 0.00 | 0.45 | 0.33 | 50 | 997.6 |
| 20260502112418 | 41 | 23 | 6.0 | 10.0 | 0.00 | 0.46 | 0.33 | 49 | 997.6 |
| 20260502111938 | 41 | 45 | 12.0 | 15.0 | 0.00 | 0.47 | 0.33 | 48 | 997.4 |
| 20260502111418 | 41 | 45 | 9.0 | 12.0 | 0.00 | 0.48 | 0.33 | 48 | 997.5 |
| 20260502110918 | 41 | 23 | 10.0 | 13.0 | 0.00 | 0.49 | 0.33 | 48 | 997.4 |
| 20260502110418 | 41 | 23 | 10.0 | 15.0 | 0.00 | 0.49 | 0.33 | 49 | 997.3 |
| 20260502105918 | 41 | 23 | 9.0 | 13.0 | 0.00 | 0.49 | 0.33 | 48 | 997.3 |
| 20260502105418 | 41 | 23 | 10.0 | 15.0 | 0.00 | 0.49 | 0.33 | 48 | 997.3 |
| 20260502104918 | 41 | 23 | 9.0 | 12.0 | 0.00 | 0.49 | 0.33 | 48 | 997.3 |
| 20260502104418 | 41 | 23 | 9.0 | 12.0 | 0.00 | 0.50 | 0.33 | 48 | 997.2 |
| 20260502103918 | 41 | 23 | 11.0 | 14.0 | 0.00 | 0.50 | 0.33 | 48 | 997.2 |
| 20260502103417 | 41 | 23 | 12.0 | 17.0 | 0.00 | 0.51 | 0.33 | 49 | 997.0 |
| 20260502102918 | 41 | 23 | 11.0 | 14.0 | 0.00 | 0.52 | 0.33 | 48 | 997.0 |
| 20260502102438 | 41 | 23 | 11.0 | 15.0 | 0.01 | 0.52 | 0.33 | 49 | 996.9 |
| 20260502101918 | 41 | 23 | 11.0 | 15.0 | 0.01 | 0.53 | 0.33 | 49 | 997.0 |
| 20260502101459 | 41 | 45 | 10.0 | 14.0 | 0.01 | 0.53 | 0.33 | 49 | 997.0 |
| 20260502100958 | 40 | 45 | 11.0 | 16.0 | 0.03 | 0.53 | 0.33 | 49 | 996.8 |
| 20260502100439 | 40 | 45 | 6.0 | 10.0 | 0.04 | 0.54 | 0.33 | 50 | 996.9 |
| 20260502091418 | 38 | 23 | 8.0 | 11.0 | 0.20 | 0.60 | 0.32 | 53 | 996.8 |
| 20260502090937 | 38 | 0 | 10.0 | 14.0 | 0.19 | 0.59 | 0.30 | 53 | 997.0 |
| 20260502090418 | 38 | 338 | 9.0 | 11.0 | 0.19 | 0.58 | 0.29 | 53 | 996.9 |
| 20260502071419 | 42 | 225 | 6.0 | 7.0 | 0.00 | 0.38 | 0.00 | 52 | 996.1 |
| 20260502070920 | 42 | 225 | 7.0 | 10.0 | 0.00 | 0.38 | 0.00 | 52 | 996.0 |
| 20260502070438 | 43 | 203 | 2.0 | 4.0 | 0.00 | 0.38 | 0.00 | 52 | 995.9 |
| 20260502065917 | 43 | 203 | 1.0 | 2.0 | 0.00 | 0.38 | 0.00 | 52 | 996.0 |
| 20260502065419 | 43 | 180 | 5.0 | 9.0 | 0.00 | 0.38 | 0.00 | 51 | 996.1 |
| 20260502064919 | 44 | 113 | 5.0 | 8.0 | 0.00 | 0.38 | 0.00 | 51 | 996.1 |
| 20260502064418 | 44 | 113 | 6.0 | 8.0 | 0.00 | 0.38 | 0.00 | 52 | 996.1 |
| 20260502063917 | 44 | 113 | 8.0 | 10.0 | 0.00 | 0.38 | 0.00 | 51 | 996.2 |
| 20260502063418 | 44 | 90 | 10.0 | 11.0 | 0.00 | 0.38 | 0.00 | 51 | 996.2 |
| 20260502062917 | 44 | 90 | 11.0 | 13.0 | 0.00 | 0.38 | 0.00 | 51 | 996.2 |
| 20260502062418 | 44 | 68 | 8.0 | 13.0 | 0.00 | 0.38 | 0.00 | 50 | 996.2 |
| 20260502061918 | 44 | 68 | 6.0 | 8.0 | 0.00 | 0.38 | 0.00 | 50 | 996.4 |
| 20260502061417 | 44 | 90 | 8.0 | 9.0 | 0.00 | 0.38 | 0.00 | 50 | 996.4 |
| 20260502060917 | 44 | 68 | 6.0 | 9.0 | 0.00 | 0.38 | 0.00 | 49 | 996.5 |
| 20260502060418 | 44 | 68 | 9.0 | 11.0 | 0.00 | 0.38 | 0.00 | 50 | 996.5 |
| 20260502055917 | 44 | 68 | 9.0 | 12.0 | 0.00 | 0.38 | 0.00 | 49 | 996.6 |
| 20260502055418 | 44 | 68 | 8.0 | 13.0 | 0.00 | 0.38 | 0.00 | 49 | 996.6 |
| 20260502054917 | 44 | 68 | 8.0 | 10.0 | 0.00 | 0.38 | 0.00 | 49 | 996.6 |
| 20260502054417 | 44 | 68 | 8.0 | 11.0 | 0.00 | 0.38 | 0.00 | 49 | 996.7 |
| 20260502053917 | 44 | 90 | 9.0 | 11.0 | 0.00 | 0.38 | 0.00 | 49 | 996.7 |
| 20260502053417 | 44 | 68 | 9.0 | 13.0 | 0.00 | 0.38 | 0.00 | 48 | 996.5 |
| 20260502052918 | 44 | 68 | 11.0 | 13.0 | 0.00 | 0.38 | 0.00 | 48 | 996.5 |
| 20260502052420 | 44 | 68 | 10.0 | 13.0 | 0.00 | 0.38 | 0.00 | 48 | 996.5 |
| 20260502051918 | 44 | 68 | 11.0 | 14.0 | 0.00 | 0.38 | 0.00 | 48 | 996.5 |
| 20260502051418 | 44 | 68 | 12.0 | 15.0 | 0.00 | 0.38 | 0.00 | 48 | 996.7 |
| 20260502050918 | 44 | 68 | 12.0 | 14.0 | 0.00 | 0.38 | 0.00 | 48 | 996.8 |
| 20260502050417 | 43 | 68 | 12.0 | 15.0 | 0.00 | 0.38 | 0.00 | 48 | 996.7 |
| 20260502045958 | 43 | 68 | 13.0 | 16.0 | 0.00 | 0.38 | 0.00 | 49 | 996.7 |
| 20260502045418 | 43 | 68 | 14.0 | 17.0 | 0.00 | 0.38 | 0.00 | 49 | 996.5 |
| 20260502044917 | 43 | 68 | 14.0 | 17.0 | 0.00 | 0.38 | 0.00 | 49 | 996.7 |
| 20260502044418 | 43 | 45 | 15.0 | 17.0 | 0.00 | 0.38 | 0.00 | 49 | 996.8 |
| 20260502043918 | 43 | 45 | 15.0 | 17.0 | 0.00 | 0.38 | 0.00 | 49 | 996.8 |
| 20260502043438 | 43 | 45 | 14.0 | 17.0 | 0.00 | 0.38 | 0.00 | 49 | 996.9 |
| 20260502042917 | 43 | 45 | 13.0 | 17.0 | 0.00 | 0.38 | 0.00 | 49 | 996.9 |
| 20260502042418 | 43 | 45 | 12.0 | 15.0 | 0.00 | 0.38 | 0.00 | 50 | 997.0 |
| 20260502041938 | 43 | 45 | 9.0 | 13.0 | 0.00 | 0.38 | 0.00 | 50 | 997.1 |
| 20260502041417 | 43 | 45 | 16.0 | 19.0 | 0.00 | 0.38 | 0.00 | 50 | 996.9 |
| 20260502040917 | 43 | 45 | 12.0 | 14.0 | 0.00 | 0.38 | 0.00 | 51 | 996.9 |
| 20260502040417 | 43 | 45 | 14.0 | 20.0 | 0.00 | 0.38 | 0.00 | 50 | 996.9 |
| 20260502035918 | 43 | 45 | 12.0 | 16.0 | 0.00 | 0.38 | 0.38 | 51 | 996.9 |
| 20260502035438 | 43 | 45 | 13.0 | 20.0 | 0.00 | 0.38 | 0.38 | 51 | 996.8 |
| 20260502034917 | 44 | 23 | 14.0 | 15.0 | 0.00 | 0.38 | 0.38 | 51 | 996.8 |
| 20260502034438 | 44 | 23 | 16.0 | 19.0 | 0.00 | 0.38 | 0.38 | 51 | 996.7 |
| 20260502033917 | 44 | 23 | 16.0 | 20.0 | 0.00 | 0.38 | 0.38 | 51 | 996.6 |
| 20260502033417 | 45 | 23 | 15.0 | 20.0 | 0.00 | 0.38 | 0.38 | 52 | 996.6 |
| 20260502032917 | 43 | 0 | 10.0 | 16.0 | 0.00 | 0.38 | 0.38 | 53 | 996.7 |
| 20260502032418 | 43 | 0.0 | 0.0 | 0.00 | 0.38 | 0.38 | 52 | 996.6 | |
| 20260502031937 | 43 | 0.0 | 0.0 | 0.00 | 0.38 | 0.38 | 52 | 996.5 | |
| 20260502031439 | 43 | 315 | 1.0 | 2.0 | 0.00 | 0.38 | 0.38 | 52 | 996.5 |
| 20260502030938 | 43 | 0.0 | 0.0 | 0.00 | 0.38 | 0.38 | 52 | 996.5 | |
| 20260502030421 | 43 | 0.0 | 0.0 | 0.01 | 0.38 | 0.38 | 52 | 996.5 | |
| 20260502025917 | 43 | 0.0 | 1.0 | 0.01 | 0.38 | 0.38 | 52 | 996.5 | |
| 20260502025420 | 43 | 0.0 | 1.0 | 0.01 | 0.38 | 0.38 | 52 | 996.3 | |
| 20260502024919 | 43 | 315 | 2.0 | 3.0 | 0.01 | 0.38 | 0.38 | 51 | 996.4 |
| 20260502024417 | 43 | 0.0 | 1.0 | 0.01 | 0.38 | 0.38 | 52 | 996.4 |